KL7GG Weather Reports


Display with metric or nautical units.
time (UTC)temp
F
wind
direction
speed
MPH
gust
MPH
rain 1hr
in
rain 24hr
in
rain mn
in
humidity
%
barometer
mb
20260510204750 48 327 1.0 7.0 0.00 0.00 0.00 78 994.1
20260510203246 48 303 2.0 9.0 0.00 0.00 0.00 78 994.0
20260510201742 48 298 6.0 10.0 0.00 0.00 0.00 79 994.0
20260510200236 47 295 5.0 7.0 0.00 0.00 0.00 80 993.7
20260510194732 47 330 3.0 10.0 0.00 0.00 0.00 79 993.6
20260510193228 47 301 2.0 11.0 0.00 0.00 0.00 80 993.5
20260510191722 47 0 0.0 6.0 0.00 0.00 0.00 82 993.4
20260510190218 46 0 0.0 1.0 0.00 0.00 0.00 86 993.4
20260510184714 45 0 0.0 1.0 0.00 0.00 0.00 88 993.2
20260510183210 44 0 0.0 2.0 0.00 0.00 0.00 91 993.1
20260510181706 44 0 0.0 0.0 0.00 0.00 0.00 93 993.0
20260510180202 43 0 0.0 1.0 0.00 0.00 0.00 94 993.0
20260510174658 43 0 0.0 0.0 0.00 0.00 0.00 95 993.1
20260510173154 42 0 0.0 0.0 0.00 0.00 0.00 95 993.0
20260510171648 43 0 0.0 0.0 0.00 0.00 0.00 95 993.0
20260510170144 42 0 0.0 0.0 0.00 0.00 0.00 95 993.0
20260510164640 42 0 0.0 0.0 0.00 0.00 0.00 95 992.8
20260510163136 41 0 0.0 0.0 0.00 0.00 0.00 95 992.9
20260510161632 41 0 0.0 0.0 0.00 0.00 0.00 95 992.7
20260510160128 41 0 0.0 0.0 0.00 0.00 0.00 95 992.6
20260510154624 40 0 0.0 0.0 0.00 0.00 0.00 95 992.6
20260510153118 40 0 0.0 0.0 0.00 0.00 0.00 95 992.4
20260510150108 39 0 0.0 0.0 0.00 0.00 0.00 95 992.4
20260510144604 39 0 0.0 0.0 0.00 0.00 0.00 94 992.4
20260510143100 39 0 0.0 0.0 0.00 0.01 0.00 94 992.3
20260510141556 39 0 0.0 0.0 0.00 0.01 0.00 94 992.3
20260510140052 39 0 0.0 0.0 0.00 0.02 0.00 94 992.3
20260510134546 39 0 0.0 0.0 0.00 0.02 0.00 94 992.3
20260510133042 39 0 0.0 0.0 0.00 0.02 0.00 94 992.2
20260510131538 39 0 0.0 0.0 0.00 0.02 0.00 94 992.0
20260510130034 39 15 1.0 5.0 0.00 0.02 0.00 94 992.0
20260510124530 39 239 2.0 5.0 0.00 0.02 0.00 94 992.1
20260510123026 39 0 0.0 1.0 0.00 0.02 0.00 94 992.1
20260510121522 39 0 0.0 1.0 0.00 0.03 0.00 94 992.1
20260510120018 39 0 0.0 0.0 0.00 0.03 0.00 93 992.1
20260510114512 39 0 0.0 0.0 0.00 0.03 0.00 93 992.1
20260510113008 39 0 0.0 0.0 0.00 0.03 0.00 93 992.1
20260510111504 40 0 0.0 0.0 0.00 0.03 0.00 93 992.1
20260510110000 40 0 0.0 0.0 0.00 0.03 0.00 93 992.0
20260510104456 40 0 0.0 0.0 0.00 0.03 0.00 93 992.0
20260510102952 40 0 0.0 0.0 0.00 0.03 0.00 93 991.9
20260510101446 40 0 0.0 0.0 0.00 0.03 0.00 92 992.0
20260510095942 40 0 0.0 0.0 0.00 0.03 0.00 92 992.0
20260510094438 40 0 0.0 2.0 0.00 0.03 0.00 92 992.0
20260510092934 40 0 0.0 0.0 0.00 0.03 0.00 92 992.0
20260510091430 40 0 0.0 0.0 0.00 0.03 0.00 92 991.9
20260510085926 40 0 0.0 0.0 0.00 0.03 0.00 91 992.0
20260510084422 40 0 0.0 0.0 0.00 0.03 0.00 91 992.1
20260510082918 40 0 0.0 0.0 0.00 0.03 0.03 91 992.0
20260510081414 41 0 0.0 0.0 0.00 0.03 0.03 91 991.8
20260510075910 41 0 0.0 0.0 0.00 0.03 0.03 90 991.9
20260510074406 41 0 0.0 0.0 0.00 0.03 0.03 90 991.9
20260510072902 41 0 0.0 0.0 0.00 0.04 0.03 90 991.7
20260510071358 41 0 0.0 4.0 0.00 0.04 0.03 89 991.6
20260510065854 42 0 0.0 0.0 0.00 0.05 0.03 88 991.5
20260510064350 42 0 0.0 1.0 0.00 0.05 0.03 88 991.5
20260510062846 42 0 0.0 0.0 0.00 0.05 0.03 87 991.2
20260510061342 43 0 0.0 2.0 0.00 0.05 0.03 87 991.0
20260510055838 43 0 0.0 0.0 0.00 0.06 0.03 85 990.9
20260510054334 44 0 0.0 1.0 0.00 0.06 0.03 85 991.0
20260510052830 44 0 0.0 1.0 0.00 0.06 0.03 84 990.7
20260510051326 45 0 0.0 0.0 0.00 0.06 0.03 83 990.5
20260510045822 45 0 0.0 0.0 0.00 0.06 0.03 82 990.5
20260510044318 46 0 0.0 0.0 0.00 0.06 0.03 81 990.6
20260510042813 47 0 0.0 0.0 0.00 0.06 0.03 79 990.6
20260510041309 48 0 0.0 0.0 0.00 0.06 0.03 77 990.6
20260510035806 48 0 0.0 1.0 0.00 0.06 0.03 75 990.4
20260510034302 49 0 0.0 4.0 0.00 0.06 0.03 73 990.4
20260510032757 51 0 0.0 5.0 0.00 0.06 0.03 69 990.4
20260510031253 51 277 3.0 7.0 0.00 0.06 0.03 67 990.5
20260510025743 50 0 0.0 1.0 0.00 0.06 0.03 69 990.5
20260510024239 49 0 0.0 6.0 0.00 0.06 0.03 73 990.4
20260510022735 48 306 1.0 5.0 0.00 0.06 0.03 76 990.5
20260510021232 48 0 0.0 5.0 0.00 0.06 0.03 75 990.5
20260510015728 47 0 0.0 6.0 0.00 0.06 0.03 76 990.5
20260510014224 47 304 2.0 7.0 0.00 0.06 0.03 76 990.5
20260510012719 47 313 1.0 9.0 0.00 0.06 0.03 76 990.4
20260510011215 48 313 1.0 10.0 0.00 0.06 0.03 77 990.3
20260510005709 48 311 4.0 11.0 0.00 0.06 0.03 75 990.3
20260510004205 48 301 9.0 12.0 0.00 0.06 0.03 76 990.4
20260510002701 47 297 4.0 10.0 0.00 0.06 0.03 77 990.4
20260510001157 47 313 2.0 9.0 0.00 0.06 0.03 76 990.3
20260509235653 47 334 2.0 7.0 0.00 0.06 0.03 77 990.4
20260509234147 47 299 6.0 10.0 0.00 0.06 0.03 77 990.2
20260509232643 47 318 5.0 9.0 0.00 0.06 0.03 77 990.2
20260509231139 47 297 3.0 7.0 0.00 0.06 0.03 76 990.4
20260509225635 47 286 1.0 6.0 0.00 0.06 0.03 78 990.4
20260509224131 46 286 1.0 5.0 0.00 0.06 0.03 77 990.4
20260509222627 45 0 0.0 4.0 0.00 0.06 0.03 80 990.5
20260509221123 45 283 4.0 7.0 0.00 0.06 0.03 80 990.4
20260509215619 44 286 3.0 7.0 0.00 0.06 0.03 81 990.5
20260509214115 45 308 3.0 7.0 0.00 0.06 0.03 81 990.4
20260509212611 44 0 0.0 6.0 0.00 0.06 0.03 82 990.3
20260509211107 44 331 4.0 8.0 0.00 0.06 0.03 83 990.3
20260509205603 44 321 4.0 6.0 0.00 0.06 0.03 82 990.4